ANA9818 RJFK-RJCW

Flight info

Callsign ANA9818
Flight time N/A
Altitude 35000
Route ATRUK1 SASIK Y501 RAFUL Y45 MARCO Y141 SAMON Z17 MRE V13 OHMAR Y13 SIRAO V13 CHE Y10 YOROI
Aircraft A21N/M-V/N

Departure

Time 2026-04-30 13:56
Airport Kagoshima Airport (RJFK)

Arrival

Time N/A
Airport Wakkanai Airport (RJCW)
Time Latitude Longitude Altitude Speed Heading
2026-04-30 13:27 31.80208 130.71606 899 ft 0 kts 241°
2026-04-30 13:29 31.80088 130.71691 882 ft 0 kts 239°
2026-04-30 13:45 31.80102 130.71718 894 ft 2 kts 237°
2026-04-30 13:45 31.80111 130.71732 897 ft 2 kts 235°
2026-04-30 13:45 31.80121 130.71748 897 ft 2 kts 232°
2026-04-30 13:46 31.80131 130.71763 896 ft 2 kts 228°
2026-04-30 13:46 31.80143 130.71777 898 ft 2 kts 223°
2026-04-30 13:46 31.80155 130.71790 897 ft 2 kts 216°
2026-04-30 13:46 31.80169 130.71800 899 ft 2 kts 205°
2026-04-30 13:47 31.80185 130.71806 899 ft 2 kts 186°
2026-04-30 13:47 31.80202 130.71804 900 ft 2 kts 163°
2026-04-30 13:47 31.80212 130.71800 900 ft 1 kts 152°
2026-04-30 13:47 31.80213 130.71799 900 ft 0 kts 152°
2026-04-30 13:49 31.80207 130.71803 900 ft 3 kts 151°
2026-04-30 13:49 31.80176 130.71824 900 ft 7 kts 150°
2026-04-30 13:50 31.80120 130.71861 897 ft 12 kts 150°
2026-04-30 13:50 31.79931 130.71989 890 ft 20 kts 150°
2026-04-30 13:50 31.79802 130.72076 885 ft 23 kts 150°
2026-04-30 13:51 31.79661 130.72171 881 ft 24 kts 150°
2026-04-30 13:51 31.79515 130.72269 880 ft 25 kts 150°
2026-04-30 13:51 31.79361 130.72373 878 ft 26 kts 150°
2026-04-30 13:51 31.79235 130.72459 878 ft 15 kts 150°
2026-04-30 13:52 31.79144 130.72523 875 ft 16 kts 140°
2026-04-30 13:52 31.79128 130.72616 872 ft 0 kts 62°
2026-04-30 13:54 31.79134 130.72629 872 ft 4 kts 62°
2026-04-30 13:54 31.79155 130.72673 872 ft 9 kts 53°
2026-04-30 13:54 31.79222 130.72687 873 ft 11 kts 332°
2026-04-30 13:54 31.79225 130.72685 873 ft 0 kts 331°
2026-04-30 13:55 31.79261 130.72662 875 ft 26 kts 331°
2026-04-30 13:55 31.79618 130.72422 883 ft 95 kts 330°
2026-04-30 13:55 31.80369 130.71913 903 ft 150 kts 330°
2026-04-30 13:55 31.81359 130.71261 1127 ft 168 kts 329°
2026-04-30 13:56 31.82366 130.70577 1715 ft 166 kts 326°
2026-04-30 13:56 31.83361 130.69855 2209 ft 175 kts 328°
2026-04-30 13:56 31.84587 130.69401 2542 ft 193 kts 345°
2026-04-30 13:56 31.85941 130.69035 2976 ft 206 kts 343°
2026-04-30 13:57 31.87375 130.68622 3486 ft 218 kts 343°
2026-04-30 13:57 31.88902 130.68171 3909 ft 237 kts 342°
2026-04-30 13:57 31.90567 130.67674 4301 ft 256 kts 343°
2026-04-30 13:57 31.92340 130.67144 4789 ft 269 kts 343°
2026-04-30 13:58 31.94172 130.66597 5491 ft 274 kts 342°
2026-04-30 13:58 31.97877 130.65246 6906 ft 283 kts 336°
2026-04-30 13:58 31.99740 130.64474 7635 ft 286 kts 336°
2026-04-30 13:59 32.01645 130.63733 8321 ft 293 kts 343°
2026-04-30 13:59 32.03718 130.63717 9014 ft 306 kts
2026-04-30 13:59 32.05679 130.64747 9701 ft 315 kts 36°
2026-04-30 13:59 32.07262 130.66573 10292 ft 323 kts 48°
2026-04-30 14:00 32.08664 130.68477 10638 ft 338 kts 49°
2026-04-30 14:00 32.12013 130.72927 11397 ft 365 kts 47°
2026-04-30 14:00 32.13739 130.75159 11962 ft 371 kts 46°
2026-04-30 14:01 32.15481 130.77394 12555 ft 376 kts 46°
2026-04-30 14:01 32.17293 130.79706 13191 ft 380 kts 46°
2026-04-30 14:01 32.19104 130.82010 13761 ft 387 kts 46°
2026-04-30 14:01 32.20951 130.84362 14265 ft 393 kts 45°
2026-04-30 14:02 32.22816 130.86744 14777 ft 398 kts 46°
2026-04-30 14:02 32.24687 130.89132 15297 ft 403 kts 46°
2026-04-30 14:02 32.26605 130.91582 15820 ft 409 kts 46°
2026-04-30 14:02 32.28544 130.94063 16343 ft 413 kts 46°
2026-04-30 14:03 32.30509 130.96574 16861 ft 418 kts 46°
2026-04-30 14:03 32.32495 130.99121 17371 ft 425 kts 46°
2026-04-30 14:03 32.34509 131.01704 17896 ft 430 kts 46°
2026-04-30 14:03 32.36551 131.04323 18411 ft 435 kts 45°
2026-04-30 14:04 32.38615 131.06968 18777 ft 440 kts 46°
2026-04-30 14:04 32.40723 131.09617 18906 ft 441 kts 42°
2026-04-30 14:04 32.43139 131.11816 18877 ft 437 kts 28°
2026-04-30 14:04 32.45715 131.13714 18915 ft 436 kts 27°
2026-04-30 14:05 32.48296 131.15600 19266 ft 438 kts 28°
2026-04-30 14:05 32.50903 131.17516 19680 ft 443 kts 28°
2026-04-30 14:05 32.53528 131.19467 20121 ft 447 kts 28°
2026-04-30 14:05 32.56177 131.21445 20580 ft 452 kts 28°
2026-04-30 14:06 32.58854 131.23440 21010 ft 457 kts 28°
2026-04-30 14:06 32.64288 131.27497 21887 ft 465 kts 28°
2026-04-30 14:07 32.69811 131.31623 22714 ft 472 kts 29°
2026-04-30 14:07 32.72602 131.33717 23099 ft 476 kts 29°
2026-04-30 14:07 32.75408 131.35822 23429 ft 480 kts 29°
2026-04-30 14:08 32.81094 131.40045 24097 ft 489 kts 28°
2026-04-30 14:08 32.84027 131.42210 24464 ft 491 kts 28°
2026-04-30 14:08 32.89826 131.46460 25198 ft 495 kts 27°
2026-04-30 14:09 32.92717 131.48586 25538 ft 497 kts 28°
2026-04-30 14:09 32.95664 131.50764 25866 ft 499 kts 28°
2026-04-30 14:09 33.01585 131.55158 26493 ft 504 kts 28°
2026-04-30 14:10 33.03562 131.56620 26707 ft 506 kts 27°
2026-04-30 14:10 33.07577 131.59584 27088 ft 510 kts 27°
2026-04-30 14:10 33.09618 131.61095 27278 ft 512 kts 27°
2026-04-30 14:10 33.12658 131.63351 27550 ft 515 kts 27°
2026-04-30 14:11 33.15706 131.65617 27832 ft 517 kts 27°
2026-04-30 14:11 33.18766 131.67892 28128 ft 519 kts 27°
2026-04-30 14:11 33.21851 131.70135 28393 ft 519 kts 24°
2026-04-30 14:11 33.25111 131.71957 28662 ft 516 kts 17°
2026-04-30 14:12 33.28374 131.73613 28934 ft 518 kts 17°
2026-04-30 14:12 33.31701 131.75292 29182 ft 521 kts 17°
2026-04-30 14:12 33.35041 131.76989 29435 ft 523 kts 17°
2026-04-30 14:12 33.38391 131.78705 29690 ft 525 kts 17°
2026-04-30 14:13 33.41755 131.80435 29930 ft 527 kts 17°
2026-04-30 14:13 33.45134 131.82181 30135 ft 529 kts 17°
2026-04-30 14:13 33.48516 131.83939 30322 ft 531 kts 17°
2026-04-30 14:13 33.51930 131.85693 30508 ft 533 kts 17°
2026-04-30 14:14 33.55340 131.87444 30683 ft 536 kts 17°
2026-04-30 14:14 33.58771 131.89214 30870 ft 537 kts 17°
2026-04-30 14:14 33.62214 131.91000 31044 ft 540 kts 17°
2026-04-30 14:14 33.65667 131.92797 31217 ft 542 kts 18°
2026-04-30 14:15 33.69135 131.94604 31399 ft 544 kts 18°
2026-04-30 14:15 33.72605 131.96409 31604 ft 544 kts 17°
2026-04-30 14:15 33.76084 131.98208 31818 ft 545 kts 17°
2026-04-30 14:15 33.79564 132.00011 32011 ft 545 kts 18°
2026-04-30 14:16 33.83048 132.01831 32211 ft 546 kts 18°
2026-04-30 14:16 33.86531 132.03652 32408 ft 547 kts 18°
2026-04-30 14:16 33.90037 132.05455 32605 ft 547 kts 17°
2026-04-30 14:16 33.93502 132.07224 32805 ft 547 kts 17°
2026-04-30 14:17 33.97046 132.09049 32989 ft 549 kts 17°
2026-04-30 14:17 34.00516 132.10848 33159 ft 550 kts 17°
2026-04-30 14:17 34.04075 132.12702 33351 ft 550 kts 18°
2026-04-30 14:17 34.07552 132.14682 33518 ft 557 kts 26°
2026-04-30 14:18 34.10698 132.17435 33690 ft 562 kts 39°
2026-04-30 14:18 34.13639 132.20564 33884 ft 563 kts 40°
2026-04-30 14:18 34.19442 132.26823 34177 ft 563 kts 40°
2026-04-30 14:19 34.25330 132.33063 34483 ft 563 kts 39°
2026-04-30 14:19 34.28285 132.36175 34633 ft 563 kts 39°
2026-04-30 14:19 34.31229 132.39295 34774 ft 563 kts 40°
2026-04-30 14:20 34.34163 132.42439 34879 ft 561 kts 40°
2026-04-30 14:20 34.42932 132.51766 34852 ft 559 kts 39°
2026-04-30 14:21 34.48794 132.57970 34845 ft 559 kts 39°
2026-04-30 14:22 34.57563 132.67295 34843 ft 559 kts 39°
2026-04-30 14:22 34.66291 132.76638 34863 ft 559 kts 39°
2026-04-30 14:23 34.77936 132.89087 34848 ft 558 kts 39°
2026-04-30 14:24 34.86660 132.98479 34859 ft 558 kts 39°
2026-04-30 14:25 34.98278 133.11026 34860 ft 558 kts 39°
2026-04-30 14:26 35.06949 133.20470 34850 ft 557 kts 40°
2026-04-30 14:27 35.15637 133.29898 34856 ft 557 kts 39°
2026-04-30 14:27 35.21427 133.36166 34862 ft 556 kts 39°
2026-04-30 14:28 35.30054 133.45578 34854 ft 556 kts 39°
2026-04-30 14:28 35.35817 133.51900 34861 ft 556 kts 39°
2026-04-30 14:29 35.46368 133.63467 34839 ft 555 kts 39°
2026-04-30 14:31 35.61675 133.80338 34854 ft 553 kts 39°
2026-04-30 14:31 35.70212 133.89795 34856 ft 553 kts 39°
2026-04-30 14:32 35.78774 133.99305 34856 ft 552 kts 39°
2026-04-30 14:33 35.84468 134.05648 34862 ft 552 kts 39°
2026-04-30 14:33 35.93013 134.15173 34874 ft 551 kts 39°
2026-04-30 14:34 35.98693 134.21532 34877 ft 551 kts 40°
2026-04-30 14:34 36.04372 134.27897 34881 ft 551 kts 39°
2026-04-30 14:35 36.12883 134.37474 34882 ft 551 kts 39°
2026-04-30 14:36 36.18548 134.43847 34894 ft 551 kts 39°
2026-04-30 14:36 36.24194 134.50250 34893 ft 551 kts 41°
2026-04-30 14:37 36.29604 134.56984 34907 ft 551 kts 43°
2026-04-30 14:37 36.34983 134.63750 34902 ft 550 kts 43°
2026-04-30 14:38 36.40369 134.70515 34911 ft 550 kts 43°
2026-04-30 14:38 36.45735 134.77286 34914 ft 550 kts 43°
2026-04-30 14:39 36.51109 134.84078 34913 ft 551 kts 44°
2026-04-30 14:39 36.56417 134.90852 34927 ft 551 kts 43°
2026-04-30 14:40 36.64449 135.00983 34930 ft 551 kts 43°
2026-04-30 14:40 36.69810 135.07808 34934 ft 551 kts 43°
2026-04-30 14:41 36.75159 135.14631 34930 ft 550 kts 43°
2026-04-30 14:41 36.80508 135.21467 34935 ft 550 kts 43°
2026-04-30 14:42 36.85847 135.28297 34936 ft 550 kts 43°
2026-04-30 14:42 36.91182 135.35147 34940 ft 550 kts 43°
2026-04-30 14:43 36.96514 135.42002 34940 ft 550 kts 43°
2026-04-30 14:43 37.01845 135.48873 34944 ft 550 kts 43°
2026-04-30 14:44 37.07132 135.55705 34949 ft 550 kts 43°
2026-04-30 14:44 37.12449 135.62595 34948 ft 550 kts 43°
2026-04-30 14:45 37.17778 135.69499 34943 ft 550 kts 43°
2026-04-30 14:45 37.23083 135.76398 34948 ft 550 kts 43°
2026-04-30 14:46 37.28389 135.83311 34953 ft 549 kts 43°
2026-04-30 14:46 37.32789 135.89054 34950 ft 548 kts 43°
2026-04-30 14:47 37.38965 135.97128 34960 ft 548 kts 44°
2026-04-30 14:47 37.44237 136.04044 34961 ft 547 kts 44°
2026-04-30 14:48 37.49503 136.10961 34959 ft 547 kts 44°
2026-04-30 14:48 37.54748 136.17898 34962 ft 547 kts 44°
2026-04-30 14:49 37.59991 136.24860 34960 ft 547 kts 44°
2026-04-30 14:49 37.65215 136.31762 34960 ft 548 kts 44°
2026-04-30 14:50 37.73092 136.42218 34966 ft 547 kts 44°
2026-04-30 14:51 37.80950 136.52703 34967 ft 547 kts 44°
2026-04-30 14:52 37.88781 136.63180 34972 ft 546 kts 44°
2026-04-30 14:52 37.96585 136.73662 34978 ft 545 kts 44°
2026-04-30 14:53 38.04365 136.84145 34985 ft 544 kts 44°
2026-04-30 14:54 38.14719 136.98138 34983 ft 543 kts 44°
2026-04-30 14:55 38.22445 137.08634 34989 ft 542 kts 44°
2026-04-30 14:56 38.31859 137.21460 34997 ft 541 kts 44°
2026-04-30 14:57 38.39544 137.31971 34999 ft 540 kts 44°
2026-04-30 14:58 38.50581 137.47135 35008 ft 539 kts 44°
2026-04-30 14:58 38.57360 137.56466 34989 ft 539 kts 44°
2026-04-30 15:00 38.70042 137.74032 35011 ft 538 kts 44°
2026-04-30 15:01 38.80104 137.88031 35008 ft 538 kts 44°
2026-04-30 15:01 38.87650 137.98580 35020 ft 537 kts 44°
2026-04-30 15:02 38.92690 138.05670 35022 ft 537 kts 44°
2026-04-30 15:03 39.05304 138.23393 35033 ft 537 kts 44°
2026-04-30 15:04 39.17889 138.41134 35036 ft 536 kts 44°
2026-04-30 15:06 39.30407 138.58932 35027 ft 535 kts 44°
2026-04-30 15:07 39.40380 138.73173 35046 ft 534 kts 44°
2026-04-30 15:08 39.50300 138.87415 35054 ft 534 kts 44°
2026-04-30 15:09 39.62687 139.05287 35056 ft 532 kts 44°
2026-04-30 15:10 39.72558 139.19606 35055 ft 532 kts 44°
2026-04-30 15:11 39.87287 139.41082 35064 ft 531 kts 44°
2026-04-30 15:13 39.99523 139.59066 35075 ft 530 kts 44°
2026-04-30 15:14 40.16598 139.84299 35077 ft 529 kts 44°
2026-04-30 15:17 40.38366 140.16802 35104 ft 527 kts 44°
2026-04-30 15:19 40.57589 140.45762 35100 ft 525 kts 43°